Dewpoint
35 36 32 33 35 36 35 35 33 35 37 38 38 40 40 41 38 37 36 36 33 39 41 41 43 48 52 54 54 59 57 48 46 44 41 38 36 34 32 30 29 27 27 27
34 31 33 35 34 35 35 33 33 34 35 36 39 40 41 39 39 37 37 35 36 40 40 42 46 50 53 55 56 56 51 47 46 44 42 38 36 35 31 26 24 24 25 26
31 30 31 33 34 33 33 32 31 33 34 34 33 32 38 40 39 38 37 35 38 40 40 43 48 51 53 54 54 54 49 48 46 43 40 39 37 35 30 26 23 22 23 24
32 34 32 31 31 32 30 33 34 33 33 30 37 31 34 37 38 37 37 35 38 40 41 44 49 50 51 51 51 50 48 46 43 41 38 35 34 32 34 29 24 21 21 22
30 32 32 29 30 32 30 31 30 31 31 31 31 31 35 36 35 36 36 35 39 40 41 45 48 49 48 48 48 47 46 44 42 41 38 37 36 36 34 26 21 20 20 20
31 33 33 31 30 30 33 32 30 31 31 27 28 32 31 34 33 34 35 34 39 40 42 45 46 46 45 44 44 44 43 42 41 39 37 37 34 31 28 24 22 21 20 19
33 33 34 36 32 32 30 28 25 24 24 21 27 30 28 32 34 33 33 34 38 40 42 45 44 43 41 41 41 40 40 39 38 37 36 33 30 25 21 21 20 17 15 15
27 24 33 34 31 29 30 28 24 17 20 19 30 27 31 35 33 34 35 35 38 40 43 44 43 41 39 38 38 37 36 35 33 32 29 25 22 20 18 16 15 14 13 14
26 25 32 32 33 31 30 27 28 27 26 25 30 35 37 37 33 30 34 37 38 40 43 43 42 40 39 38 37 35 33 30 27 25 22 19 18 16 15 14 14 13 13 12
28 24 30 32 34 33 28 30 26 26 20 20 27 31 27 34 28 33 35 36 38 41 43 43 42 41 39 38 36 33 30 27 23 20 18 15 14 13 12 11 10 9 10 9
31 30 30 30 31 29 31 27 27 25 26 26 25 29 32 31 31 34 35 36 38 41 42 43 42 41 39 37 35 31 28 23 20 16 13 11 11 10 9 8 8 8 8 9
32 32 26 27 31 35 30 28 27 24 21 28 30 25 30 33 31 34 35 37 39 40 42 43 43 41 39 36 33 30 26 21 17 13 11 10 10 9 8 8 9 9 8 9
35 31 25 27 31 33 34 30 32 31 31 28 27 25 30 27 31 34 35 37 38 39 41 43 42 40 38 35 32 28 24 19 15 13 11 10 9 9 9 9 10 10 10 10
36 33 29 24 30 33 32 32 32 31 30 27 29 30 32 29 27 33 35 37 38 39 41 42 41 39 37 34 31 26 21 16 14 12 11 10 10 10 10 11 11 11 12 11
35 29 31 32 33 33 33 34 34 35 33 28 27 29 30 31 26 30 35 37 38 39 40 41 40 39 36 33 29 24 18 14 13 12 11 11 11 11 12 12 12 12 11 11
37 30 31 29 35 34 34 36 36 37 35 35 35 34 31 29 30 32 35 37 37 38 40 40 40 38 35 32 27 21 16 14 13 12 12 13 12 12 12 11 10 9 9 9
33 32 30 31 37 37 33 35 36 34 35 35 33 34 28 29 30 33 36 37 37 38 40 40 39 37 34 31 24 20 15 13 13 12 12 12 12 11 10 9 9 8 8 11
31 32 32 32 35 26 27 37 36 37 37 39 32 28 29 31 35 36 36 37 38 39 41 39 37 35 31 27 22 17 13 12 12 12 11 12 11 9 9 8 7 7 9 12
31 30 31 30 29 28 26 28 35 35 34 33 29 32 33 34 34 36 37 38 38 39 39 37 34 31 27 23 18 14 12 12 11 10 10 9 9 8 8 6 6 8 11 13
34 34 33 32 27 24 24 28 29 30 29 29 32 32 32 32 28 34 37 36 34 33 32 31 27 24 22 18 15 14 12 11 10 9 9 9 9 8 6 6 8 11 13 13
33 33 32 31 30 29 31 30 29 27 26 30 32 33 33 30 32 36 35 33 31 29 27 25 23 22 17 15 14 12 10 10 9 9 9 8 7 6 6 9 12 13 13 12
32 31 31 31 30 25 33 28 23 27 32 34 34 34 34 35 35 34 33 32 31 29 26 23 20 16 15 14 12 9 9 9 9 9 8 7 6 6 10 11 12 13 12 11
31 34 32 32 30 34 33 32 35 33 33 34 33 35 35 34 33 33 32 31 29 26 22 19 17 16 13 11 10 9 8 9 8 7 6 5 5 10 10 12 12 12 12 12
36 36 34 34 33 34 33 35 35 34 34 34 34 35 34 33 31 30 30 29 26 22 19 17 16 13 11 10 10 9 9 8 6 5 4 6 8 13 12 12 12 13 13 14
35 36 34 33 32 32 33 34 34 34 34 34 34 33 32 31 30 30 29 28 26 23 19 18 15 12 10 9 9 9 8 7 5 4 5 7 10 12 12 12 13 15 15 16
32 35 34 33 32 32 32 34 33 33 33 33 33 32 32 31 30 31 29 28 27 24 21 19 16 11 8 9 8 8 8 6 5 4 6 10 13 12 12 12 13 15 15 16
Wind_Speed
2 10 19 20 19 13 16 16 19 4 8 16 25 26 27 22 23 26 27 19 15 21 12 10 10 10 10 10 15 18 22 20 22 20 18 16 16 15 14 15 15 15 14 13
6 18 15 15 15 17 18 23 24 17 14 16 16 23 21 26 26 25 27 19 18 15 15 12 12 12 11 14 17 18 20 19 18 17 14 13 14 10 13 13 14 14 13 12
22 9 22 19 17 16 21 25 17 15 19 25 20 34 24 22 22 26 19 19 22 28 24 19 16 16 15 17 19 21 20 20 18 18 19 15 16 12 9 11 12 11 12 12
16 24 22 15 22 17 27 14 19 18 12 13 4 17 16 20 24 25 22 19 26 22 15 15 19 19 20 17 18 21 21 21 20 19 19 21 16 17 7 9 10 11 11 11
12 14 23 30 26 20 18 15 18 16 18 18 27 17 11 19 22 28 28 26 27 28 27 26 23 23 20 19 21 21 21 20 19 19 20 19 17 12 12 14 14 12 10 10
14 2 9 13 17 25 6 17 14 15 12 21 25 16 20 24 24 20 21 25 26 25 20 18 15 21 21 18 20 20 23 18 19 21 19 20 20 18 17 13 12 9 8 7
9 25 9 3 8 10 20 15 8 12 15 17 7 20 31 18 24 30 23 25 25 26 27 25 26 25 24 23 22 20 22 20 19 20 19 19 18 17 17 14 12 9 5 3
12 6 20 17 24 9 22 24 11 9 7 11 11 15 11 25 28 26 22 24 29 28 25 26 25 25 26 24 22 20 22 21 20 21 19 17 17 16 14 12 11 8 6 4
10 9 4 10 11 21 8 23 30 10 11 9 10 6 13 19 15 12 17 28 30 30 29 27 23 23 24 24 22 23 22 21 20 21 20 18 17 17 15 12 10 7 5 3
7 8 11 6 9 19 18 12 12 15 8 10 8 10 15 12 14 8 22 28 27 26 24 23 23 23 21 21 20 19 19 21 19 19 18 17 16 15 13 11 9 6 4 3
8 7 2 1 9 18 17 20 10 13 14 5 8 8 16 22 15 20 23 28 29 28 27 25 22 20 20 20 21 20 19 20 19 18 17 18 15 14 12 10 7 5 4 4
17 7 12 19 8 14 23 21 21 15 18 15 7 12 5 27 18 27 25 25 23 25 25 23 22 22 23 22 20 20 18 19 17 16 17 16 14 12 11 8 6 4 4 4
15 8 6 6 10 16 18 25 23 22 7 18 6 15 18 9 20 19 23 21 22 22 22 21 22 24 22 21 20 19 18 18 17 16 16 14 12 11 8 6 4 4 4 6
20 6 10 16 4 1 13 28 25 25 22 16 24 17 29 10 19 17 19 22 25 26 26 22 20 19 20 20 21 20 17 18 17 16 15 13 11 8 7 5 4 4 5 7
11 10 12 22 26 19 17 25 32 24 11 23 10 26 44 27 22 25 21 20 23 23 23 23 24 22 21 21 20 18 18 18 17 16 14 11 9 7 5 4 3 4 6 8
7 5 6 25 18 21 11 27 30 15 10 9 17 20 29 5 10 14 23 23 24 25 24 22 21 20 21 22 21 19 19 18 17 16 13 10 8 6 4 3 3 5 8 10
10 7 5 5 9 16 10 27 22 9 11 23 22 29 11 8 9 11 19 24 27 25 24 24 24 22 21 21 22 21 19 17 16 14 11 9 7 5 3 3 5 8 9 11
9 7 8 3 3 4 1 25 33 32 31 32 17 11 14 15 10 10 5 13 17 20 20 20 20 19 19 17 19 20 18 17 16 13 10 8 6 4 3 4 6 8 9 12
9 5 6 4 4 3 4 9 14 19 16 9 11 13 17 17 12 11 12 7 12 16 17 18 18 20 21 21 20 20 17 16 14 11 9 7 5 4 3 4 7 8 10 13
12 7 6 5 3 3 1 2 1 4 6 6 14 23 24 11 14 5 5 13 19 19 19 22 21 21 23 18 19 20 17 15 12 10 8 6 4 3 3 5 8 7 9 12
4 5 12 5 3 7 7 2 1 6 5 4 17 23 20 13 3 16 14 17 17 20 23 21 20 21 20 18 18 18 15 13 10 9 7 5 4 4 4 6 7 10 12 13
9 9 6 4 1 6 2 1 2 2 2 3 11 10 15 21 23 20 19 20 21 23 20 19 22 20 16 16 18 17 14 10 10 8 6 5 5 6 6 8 11 11 12 14
8 8 9 11 8 1 1 1 1 2 6 6 15 18 27 26 22 19 19 19 18 19 18 16 20 19 14 14 16 16 12 10 9 7 6 5 5 5 7 9 11 12 14 14
4 4 4 4 3 3 3 3 3 6 8 12 19 22 23 29 21 20 18 18 17 17 18 17 18 17 15 12 12 14 11 9 8 7 5 4 5 6 8 7 9 11 13 14
6 13 7 6 4 1 3 3 8 14 19 20 15 19 22 26 20 20 19 17 17 16 16 16 17 17 14 13 13 11 9 9 8 6 4 4 4 5 8 9 8 11 12 13
9 9 13 12 11 7 7 13 16 21 21 21 26 20 14 17 21 19 17 15 16 17 15 15 15 16 14 13 12 9 8 8 7 5 3 2 4 6 8 10 14 9 13 16
Wind_Direction
250 223 225 226 225 243 273 282 267 340 316 289 268 274 260 255 252 236 245 249 227 209 200 189 165 156 149 144 145 145 136 134 127 128 125 120 124 112 98 94 95 91 86 79
268 241 236 242 239 241 253 263 271 292 279 277 285 288 278 249 248 236 236 230 221 194 186 179 167 157 159 147 140 133 133 135 132 134 134 131 130 108 106 100 88 85 82 76
226 251 233 223 236 236 241 246 264 263 293 284 283 286 270 258 246 248 232 216 198 191 186 178 169 163 150 148 146 140 139 136 134 128 121 114 108 104 106 99 91 79 82 74
241 233 259 233 234 220 247 233 240 253 271 263 113 276 251 244 243 242 240 205 195 190 179 175 161 160 155 155 146 141 141 141 141 139 140 143 143 142 148 126 113 91 79 76
216 213 219 234 234 225 249 239 240 242 244 268 267 266 261 242 249 227 229 211 195 186 179 175 167 154 148 148 148 146 143 143 148 144 143 143 141 131 131 125 115 97 80 73
219 168 213 219 232 229 242 236 259 249 255 243 245 227 254 236 232 234 227 213 184 178 169 161 155 143 142 144 144 145 144 147 150 146 147 148 141 137 134 136 128 117 90 71
211 235 254 234 242 227 215 240 247 215 215 241 228 212 242 252 245 228 227 204 178 169 161 162 158 152 148 151 148 149 148 150 147 144 142 142 140 139 137 143 138 133 115 82
203 238 203 206 219 194 205 205 210 215 212 233 187 241 246 227 248 255 255 207 167 163 163 165 161 155 150 150 147 145 144 142 139 137 135 132 132 130 128 129 127 125 130 134
200 247 215 221 199 196 210 209 221 296 287 264 221 270 274 259 276 227 192 162 167 160 165 166 158 156 152 154 154 149 143 139 136 134 131 129 126 125 125 122 121 120 122 96
213 250 210 179 188 221 208 178 174 211 236 244 247 235 225 224 230 172 166 168 167 161 160 160 160 159 157 155 151 147 145 143 139 134 131 129 127 122 123 123 124 119 104 55
186 219 226 254 187 210 215 220 204 189 233 264 269 248 207 219 192 185 188 172 167 165 163 162 162 162 154 150 152 151 146 142 138 134 130 128 127 124 123 123 120 110 88 42
204 209 230 239 248 245 210 217 205 209 210 245 291 283 17 235 223 177 188 172 169 164 161 162 161 156 156 156 154 155 149 143 140 135 131 128 127 127 125 122 110 95 58 17
169 224 253 249 208 224 217 209 202 222 228 239 212 268 357 186 174 181 167 161 161 155 155 157 157 162 159 157 155 152 148 144 140 136 132 130 131 132 130 120 100 61 25 356
166 205 237 255 321 66 211 202 206 204 234 219 232 267 282 255 178 171 168 161 161 163 164 163 159 157 155 155 155 152 146 144 141 137 135 137 140 138 129 114 80 38 6 350
170 225 232 251 251 225 238 208 192 195 186 203 230 217 253 248 185 187 171 158 157 162 166 168 164 162 157 153 151 147 145 145 142 139 140 144 139 133 120 97 51 18 4 356
175 254 259 289 268 207 207 193 190 186 192 239 257 281 249 188 136 160 169 162 167 171 172 168 162 158 158 155 152 149 148 145 144 145 145 141 135 127 115 75 28 13 6 358
178 205 291 306 120 129 163 173 181 206 232 203 220 235 168 144 144 161 170 172 175 174 168 165 164 160 154 153 152 152 148 144 144 140 140 139 135 127 97 59 27 10 357 352
197 198 242 320 138 58 50 181 186 198 206 218 208 137 158 146 106 66 39 176 164 157 151 146 143 140 140 137 137 137 140 142 141 141 140 138 132 114 74 39 15 355 350 346
188 187 299 359 334 289 99 109 172 199 204 210 152 132 128 129 97 47 28 107 138 137 131 132 133 136 132 136 136 136 140 139 138 139 138 131 123 105 54 12 358 350 341 337
198 219 290 341 6 45 325 2 90 154 230 173 160 157 158 161 162 166 57 97 102 102 112 121 119 121 127 132 134 136 139 139 139 137 131 123 113 86 28 4 350 339 332 323
167 202 233 258 318 292 266 307 58 157 233 175 175 170 164 165 172 138 114 91 93 104 111 110 115 127 134 137 133 134 136 136 133 128 125 113 84 47 24 3 348 336 337 335
171 180 189 185 260 266 266 349 191 187 90 158 146 137 112 113 109 114 113 111 111 113 112 113 118 124 131 133 131 133 131 134 130 126 117 96 57 30 21 2 348 346 344 341
196 190 175 196 214 240 130 357 61 149 131 127 128 129 127 123 124 126 127 123 120 119 117 115 121 123 124 127 131 133 140 137 130 120 96 65 41 40 18 4 349 346 345 343
238 190 207 176 235 235 160 99 74 117 114 119 126 129 132 131 132 129 128 126 121 121 122 124 122 123 125 126 129 133 139 134 124 110 88 59 38 16 0 359 355 344 343 339
193 170 190 243 263 38 211 185 139 112 117 114 106 122 129 129 131 133 134 132 131 130 131 134 134 133 134 132 128 130 129 126 118 107 81 44 16 349 350 356 349 344 338 333
193 178 183 218 199 197 209 166 145 135 136 133 128 120 115 132 132 133 135 138 138 139 139 138 136 135 138 134 129 123 120 122 117 100 60 359 351 353 348 344 342 345 339 336